GFSNGP_925_thetae_000.txt.gz
Theta_e
332 334 335 336 334 331 329 332 332 335 339 348 348 344 339 342 361 360 360 356 354 353 353 350 349 347 348 348 343 344 343 345 342 341 342 340 343 342 341 340 338 334 334 335
336 334 333 334 334 332 329 328 330 331 346 341 339 338 337 344 358 358 357 355 352 354 351 350 349 347 347 347 346 344 342 345 341 340 340 339 341 339 339 339 337 337 336 335
340 334 334 336 333 335 331 330 331 342 346 342 343 345 341 359 355 354 353 351 348 347 346 345 344 345 346 348 348 347 343 342 340 339 340 338 338 338 339 338 337 336 333 332
340 340 340 338 340 340 339 333 331 353 346 342 339 346 344 356 354 353 348 346 344 343 342 341 339 340 340 341 342 347 345 342 339 337 337 340 337 338 337 334 332 329 326 323
342 340 337 342 341 338 341 335 335 345 352 344 347 347 355 351 349 346 344 342 339 337 336 333 331 331 335 339 340 342 346 343 340 339 339 338 337 336 332 329 324 322 320 318
344 339 339 338 340 340 341 339 347 346 354 353 352 356 352 345 342 340 338 336 333 330 328 327 325 326 328 333 336 338 339 340 338 336 331 328 330 326 324 322 320 317 314 313
335 338 338 341 342 340 339 349 348 353 351 353 353 352 348 341 340 337 335 329 328 326 324 322 319 318 317 317 317 319 323 325 328 327 324 322 322 321 319 316 313 310 309 308
338 339 339 339 338 337 353 348 351 352 350 348 346 344 342 340 337 334 330 327 324 323 319 317 315 315 313 313 314 316 316 317 316 319 318 318 319 315 313 311 309 307 308 307
347 350 348 350 352 349 347 348 351 350 345 343 342 340 338 336 332 329 327 324 322 320 317 315 314 313 312 311 312 311 311 311 310 310 310 311 310 309 309 308 307 306 305 305
342 342 348 346 346 345 344 344 345 343 341 339 339 338 335 332 329 326 324 322 320 319 317 316 313 312 312 311 311 311 311 311 311 311 311 311 310 309 308 307 306 305 304 304
340 344 339 344 342 344 343 342 340 339 338 338 337 335 331 330 327 325 322 320 318 318 319 317 315 315 314 313 312 312 311 308 307 306 304 304 303 304 303 303 302 302 302 301
337 345 344 343 344 341 341 340 338 336 335 334 334 333 330 327 324 322 321 319 319 319 318 318 317 316 316 315 314 312 309 306 303 302 302 301 299 299 300 299 298 298 298 297
339 340 341 338 337 335 336 334 333 334 333 333 331 330 327 326 323 321 320 319 319 320 320 320 319 317 316 315 314 312 311 310 308 307 305 303 301 299 297 296 295 295 296 296
332 330 335 330 336 336 335 333 332 332 331 330 330 328 327 325 322 322 321 321 321 321 320 319 319 319 317 315 313 312 309 307 307 307 307 307 305 303 302 303 301 299 296 295
324 328 331 326 336 335 334 332 331 331 330 330 328 328 326 325 323 323 322 321 320 319 318 316 316 315 314 313 311 310 310 310 311 311 311 310 309 309 308 307 305 302 299 298
326 324 329 323 332 335 334 333 331 330 330 329 328 327 325 324 322 319 319 317 317 317 316 317 316 315 314 314 313 314 312 312 311 310 310 310 310 309 309 308 308 305 304 303
326 326 329 335 335 334 334 331 330 328 328 328 328 326 325 321 318 317 317 317 316 317 320 318 318 317 316 316 314 313 312 312 312 312 311 310 310 309 309 308 308 305 302 299
324 326 328 332 334 333 332 330 328 327 327 327 326 322 318 317 316 316 316 316 318 319 318 317 317 316 316 315 314 314 314 313 312 312 312 311 310 310 309 308 308 305 301 297
324 324 325 330 332 331 330 328 327 326 326 323 320 319 317 315 315 314 316 318 318 320 319 318 317 317 317 316 316 315 314 313 312 312 312 310 309 310 309 308 306 304 303 300
323 322 324 330 331 329 328 325 325 324 322 317 314 314 314 313 314 316 317 319 319 319 321 320 320 318 319 317 314 314 313 311 310 312 311 310 310 309 308 306 304 304 303 301
323 325 330 330 329 328 327 324 322 321 319 313 312 314 314 316 316 318 319 320 319 319 318 318 319 319 317 315 312 310 310 311 310 311 310 309 309 308 308 305 304 303 302 301
330 330 329 328 326 324 320 319 318 316 315 317 318 318 319 319 319 318 318 317 315 315 316 315 313 312 311 311 308 309 309 310 309 309 310 308 308 308 307 306 305 303 302 301
329 327 325 323 320 317 316 315 316 317 317 318 318 318 318 318 317 316 315 314 312 311 312 312 311 310 307 306 308 309 309 309 308 308 308 308 307 307 306 306 304 303 301 301
324 322 319 317 315 315 315 314 314 314 314 313 312 312 316 317 313 314 313 313 311 311 311 310 308 307 306 305 306 308 308 307 306 307 307 307 307 306 306 304 302 301 301 300
318 316 314 314 313 312 311 311 311 311 311 311 312 315 316 316 314 312 311 312 311 311 310 309 308 306 304 305 306 308 306 306 305 305 306 306 305 305 304 303 301 301 301 301
313 313 312 312 311 311 311 311 312 312 314 315 316 315 314 314 313 311 312 313 313 310 310 309 306 305 305 306 307 306 306 305 304 304 304 303 304 303 303 302 302 301 301 300
313 313 313 314 313 313 313 314 315 315 316 317 315 314 314 314 313 312 311 311 311 311 310 308 307 306 305 306 306 305 304 304 304 304 303 303 302 302 302 302 301 301 301 301

GFSNGP_925_thetae_003.txt.gz
Theta_e
336 335 331 334 333 334 332 328 333 331 345 343 345 339 339 349 341 349 354 354 352 349 350 350 350 351 347 345 343 343 345 345 342 340 341 342 341 340 337 336 334 335 336 335
339 338 336 336 335 337 335 330 327 337 345 344 338 342 348 341 340 334 352 354 352 350 350 347 347 347 348 348 344 344 342 345 341 341 339 341 339 339 339 338 335 335 334 334
338 339 339 336 339 340 339 336 333 339 339 339 340 344 353 350 344 355 352 347 346 343 341 338 338 338 339 340 343 346 342 344 341 339 339 339 339 338 337 335 335 332 330 330
339 342 345 337 339 338 338 343 344 342 339 338 342 343 343 351 352 350 346 343 338 336 333 330 330 331 333 336 339 342 345 342 340 340 338 338 337 334 331 330 328 326 323 324
346 342 341 338 341 338 343 350 344 338 340 343 340 354 352 346 343 341 338 334 331 329 327 325 325 326 330 336 339 339 343 343 340 340 337 336 333 329 326 324 322 320 318 319
341 345 346 338 338 337 339 350 349 343 342 338 345 355 350 340 338 333 330 329 328 326 323 321 320 321 322 320 323 324 332 336 336 336 335 332 327 324 321 320 317 316 314 313
339 342 338 336 337 339 342 353 352 343 343 346 349 348 342 338 334 330 329 327 324 321 319 317 316 317 314 314 314 316 321 325 326 327 326 324 321 319 319 317 315 312 311 310
337 338 337 353 347 350 354 351 349 350 345 344 343 342 339 336 332 328 327 325 322 319 317 315 314 315 312 311 313 315 316 315 317 319 319 318 319 315 315 314 310 309 309 309
344 348 347 345 351 349 349 348 347 345 343 341 339 340 335 331 328 327 325 323 320 318 316 314 313 312 311 311 312 312 312 311 311 312 312 311 311 311 310 309 309 307 307 307
344 343 344 342 341 342 345 345 343 341 341 340 339 333 330 327 327 325 323 321 319 317 315 314 312 312 311 311 311 312 311 311 311 310 309 309 308 308 307 307 306 306 305 305
340 340 339 337 341 340 339 340 338 337 337 336 333 331 328 327 325 323 322 321 320 317 316 314 314 313 312 312 311 308 306 305 304 303 304 304 303 304 303 303 303 302 302 302
339 341 336 341 337 337 336 337 335 335 335 333 330 329 327 325 323 322 320 320 320 319 319 318 316 314 313 311 308 305 303 302 301 300 299 298 297 296 297 296 296 296 295 296
336 336 339 337 335 335 335 333 334 333 332 331 328 326 325 324 323 321 321 320 320 320 319 318 318 317 315 309 305 304 303 302 301 300 298 296 295 295 295 295 294 295 295 296
331 330 334 334 335 335 333 333 332 332 331 328 327 326 325 323 322 321 321 321 321 320 319 319 318 316 315 314 311 310 308 306 304 302 300 298 298 299 300 298 297 295 294 297
328 329 331 328 330 335 332 331 330 329 328 327 327 325 324 323 322 322 322 322 321 320 320 319 318 315 313 311 308 308 308 307 306 305 304 304 303 303 303 301 299 298 297 298
325 330 330 327 330 332 331 330 329 328 327 328 327 325 324 324 323 322 322 321 319 317 316 315 315 314 312 309 309 310 310 310 309 309 309 308 307 306 305 303 301 301 300 299
326 329 327 325 326 327 330 330 327 327 328 327 326 325 324 322 320 320 319 317 316 316 316 315 314 314 313 312 312 312 310 310 310 309 309 309 309 308 307 306 304 302 302 301
324 325 329 324 323 323 328 329 327 327 327 328 325 324 321 319 318 317 317 317 316 318 319 318 318 317 317 317 315 312 311 311 311 311 311 310 309 309 308 306 302 301 296 297
323 322 328 326 326 327 329 327 326 327 327 325 322 320 318 316 316 317 317 318 320 319 318 317 318 317 316 314 315 314 313 312 312 312 311 309 309 308 307 307 302 302 299 299
320 320 321 331 331 329 328 325 326 324 323 322 318 317 316 316 316 317 318 319 319 319 318 317 317 319 317 314 314 313 313 312 312 311 310 309 310 308 307 305 304 302 301 299
320 320 323 329 329 328 327 325 322 319 320 319 317 316 314 314 316 319 319 318 318 317 319 318 318 317 317 315 311 308 308 311 311 311 310 310 309 308 307 305 303 302 301 300
320 328 329 329 328 327 325 323 320 315 313 314 314 314 315 318 319 319 319 318 318 317 317 315 315 313 312 312 309 306 308 309 309 310 310 309 309 308 308 304 303 303 302 300
328 327 325 322 321 319 318 318 317 316 318 318 317 318 318 317 317 316 314 314 313 312 312 312 311 311 309 308 306 307 308 308 308 308 307 307 308 307 306 305 305 303 301 300
323 321 319 318 317 317 316 316 316 316 317 318 318 317 316 313 313 316 314 312 310 311 311 310 309 308 306 306 305 306 307 307 306 306 306 306 307 307 306 305 304 302 301 300
317 318 317 316 314 314 313 313 313 313 313 314 315 316 316 316 315 315 313 312 310 310 310 310 310 309 308 307 305 305 307 305 305 305 304 304 305 305 305 304 303 301 300 300
314 313 313 312 312 313 313 313 313 313 313 314 315 315 316 316 315 312 312 313 313 311 310 310 310 307 306 305 305 306 306 305 305 304 304 303 303 302 303 303 302 301 301 301
312 312 312 312 313 313 312 313 313 314 314 313 315 315 315 313 312 313 313 313 313 313 310 310 309 307 305 304 304 304 305 304 304 303 303 302 302 302 301 301 302 301 301 301

GFSNGP_925_thetae_006.txt.gz
Theta_e
329 333 335 335 333 334 330 326 327 327 342 342 341 338 339 338 336 344 337 340 345 345 345 347 347 345 342 338 342 344 346 342 341 340 341 342 339 337 334 336 337 336 334 334
334 334 335 337 335 336 336 335 327 339 345 338 336 338 341 337 340 342 341 343 348 344 339 338 338 338 342 343 342 344 345 343 340 341 342 341 340 339 333 334 333 333 333 332
333 335 336 334 334 337 337 335 333 337 338 342 341 344 344 338 338 336 340 342 341 336 332 329 330 331 334 338 340 343 343 343 341 340 340 339 338 338 335 334 332 330 330 332
331 332 338 333 334 334 338 351 340 337 339 340 343 342 342 339 336 338 340 339 333 329 326 325 326 328 332 336 338 340 342 343 340 340 339 338 337 335 332 331 329 327 326 327
336 336 335 335 336 336 342 353 343 343 343 343 346 347 343 342 340 339 335 330 326 324 323 323 324 326 328 330 330 335 341 341 339 339 336 334 332 330 328 327 324 323 324 326
337 340 341 334 334 334 334 347 345 340 353 352 350 352 347 335 331 329 327 325 323 322 321 320 321 323 325 322 323 325 329 336 338 336 334 329 325 323 321 320 317 318 319 320
336 338 335 348 350 340 332 331 346 339 339 345 347 343 337 331 329 326 323 321 320 319 317 317 319 319 318 316 315 318 323 327 330 330 330 326 324 320 320 318 315 313 312 312
333 336 337 344 350 349 344 346 345 342 342 342 339 335 332 328 326 324 322 320 318 316 315 315 315 315 313 312 313 316 318 320 319 321 318 320 320 316 314 314 311 310 311 311
333 333 341 339 344 344 344 343 342 340 339 339 337 332 328 325 323 322 321 319 317 315 314 313 313 313 312 311 313 314 314 312 311 311 312 311 313 310 310 310 310 309 309 309
337 337 339 340 337 341 340 341 340 339 337 335 331 327 325 323 321 321 320 318 316 315 314 313 312 312 312 312 312 312 311 310 309 310 309 310 310 309 309 308 308 307 307 306
336 336 337 337 338 331 336 338 338 335 333 330 327 325 324 322 321 321 320 318 317 315 314 313 313 312 312 311 310 308 307 307 308 308 307 308 306 307 308 308 308 307 306 305
335 335 334 337 335 335 336 335 334 333 331 330 327 324 322 321 321 320 320 317 316 315 315 314 313 311 310 309 309 306 303 302 301 300 300 299 297 296 296 296 297 299 301 303
332 335 335 335 334 334 334 333 333 331 329 327 324 323 322 322 321 320 320 319 319 318 316 314 313 313 309 308 308 306 303 301 299 297 296 296 296 296 295 296 296 295 296 298
327 329 332 332 334 333 332 330 329 327 326 324 323 323 322 321 321 320 320 320 319 318 317 317 315 311 305 304 303 301 300 299 298 297 298 299 298 297 296 295 294 296 297 299
328 327 327 326 330 331 329 328 327 326 325 324 324 323 322 321 321 321 320 320 319 317 316 313 309 307 308 309 308 305 303 300 300 301 301 301 300 299 298 297 296 298 299 299
322 325 328 327 329 329 327 327 326 325 324 325 324 323 323 322 321 321 321 320 319 319 318 317 316 314 312 309 307 306 306 306 305 304 303 302 301 301 299 299 299 298 299 299
324 328 326 326 328 328 327 325 326 325 325 324 324 323 323 322 321 321 321 320 319 319 318 316 313 312 309 308 308 308 308 309 308 306 305 304 303 303 302 300 301 300 300 299
318 320 322 321 326 326 326 326 325 325 325 324 323 323 322 321 320 319 319 318 316 314 314 313 312 311 309 310 311 311 309 309 309 309 308 307 306 306 305 303 303 302 302 302
318 320 322 321 321 323 324 324 325 325 325 323 322 321 321 320 319 317 317 316 317 318 317 315 315 314 315 315 314 314 310 311 311 310 310 309 308 307 306 305 303 299 297 299
318 320 326 323 323 326 326 325 325 325 325 323 322 319 318 318 318 317 317 317 318 319 319 317 317 316 315 314 312 310 311 312 311 311 310 309 309 308 307 305 302 299 299 299
317 316 325 325 327 328 325 325 324 322 320 319 318 316 316 316 317 318 319 318 319 319 318 317 317 317 313 311 308 307 308 309 311 311 310 309 309 309 306 305 304 302 300 299
315 315 325 326 325 324 323 322 320 319 317 316 315 314 315 318 318 318 318 318 317 318 317 317 315 314 312 312 310 307 308 309 310 311 311 309 309 309 307 305 303 302 301 299
322 323 324 325 323 319 317 315 316 317 315 315 315 316 318 318 318 317 315 314 313 314 315 311 310 310 309 307 306 306 307 307 307 307 306 306 308 309 309 307 306 303 302 300
317 317 316 316 317 317 316 317 318 317 317 317 316 316 317 316 317 316 316 315 311 311 311 310 310 310 308 307 306 305 305 306 306 306 306 305 306 307 308 307 305 303 302 301
315 314 314 314 314 314 314 315 316 316 316 316 315 315 316 315 315 314 314 315 311 311 310 311 310 307 306 305 304 305 306 306 305 305 304 304 303 304 304 304 304 303 301 300
313 313 313 313 313 313 314 314 314 315 315 315 314 314 315 316 315 315 312 310 309 310 312 310 310 309 306 305 305 305 305 305 304 304 304 304 303 303 302 302 302 302 301 301
312 313 313 313 313 313 313 313 314 314 314 315 315 315 316 314 312 311 311 312 313 313 313 312 310 309 308 306 305 304 304 304 303 303 303 303 303 303 302 302 301 301 301 300

GFSNGP_925_thetae_009.txt.gz
Theta_e
324 324 332 333 334 330 327 323 326 327 329 331 339 337 340 337 342 349 345 344 343 343 342 342 343 341 339 337 340 342 344 342 341 341 341 340 337 335 337 336 334 333 334 334
331 332 334 334 333 335 334 333 328 329 330 334 334 335 337 336 337 342 340 343 346 341 337 335 334 335 338 340 341 341 344 342 340 339 341 339 335 334 334 333 332 332 332 332
328 333 331 328 334 335 335 337 334 336 333 336 337 336 336 335 337 339 341 343 339 334 330 327 329 331 334 337 340 342 342 344 340 340 341 339 337 334 333 332 331 331 330 330
328 328 332 325 330 334 342 348 341 336 339 337 337 339 336 336 335 338 342 337 334 328 325 325 326 328 331 334 336 340 341 342 340 341 338 338 336 334 331 329 329 328 328 329
333 330 330 333 333 336 337 348 336 339 342 341 345 342 341 338 336 336 332 329 325 323 323 323 324 325 327 328 327 330 333 340 340 340 336 335 334 330 328 326 324 325 325 327
334 337 338 331 341 346 338 340 337 340 345 346 346 349 344 336 332 329 326 324 322 321 320 321 322 323 323 321 323 324 327 334 338 337 335 334 330 326 322 323 322 322 322 322
335 337 334 344 345 344 336 332 340 345 345 346 346 339 334 329 327 324 322 321 319 318 317 317 318 319 318 318 316 319 323 328 332 332 330 326 325 323 319 318 317 318 319 316
330 335 337 341 343 341 339 342 339 340 340 337 335 333 330 326 324 322 321 319 318 316 315 315 316 317 315 314 314 317 319 321 319 319 320 319 319 316 315 314 313 311 312 310
328 332 339 339 344 342 340 341 340 338 336 335 332 330 327 326 323 321 319 317 316 315 314 314 314 315 313 312 314 314 316 314 313 313 314 313 312 310 311 311 311 310 311 309
333 337 338 338 336 337 339 339 338 336 335 332 330 327 324 322 321 320 318 317 315 314 313 312 313 313 312 312 313 314 312 311 312 313 312 312 312 310 310 311 309 309 309 308
333 335 335 337 334 332 338 337 336 332 330 328 326 325 323 322 321 319 318 317 315 314 313 312 312 312 312 312 313 311 310 309 310 310 310 310 309 308 309 309 310 309 308 308
333 331 331 333 334 334 335 335 331 330 328 326 325 323 321 321 320 319 318 316 314 314 313 313 311 309 310 311 311 308 305 305 304 305 304 304 302 300 302 305 306 306 306 305
332 332 331 332 332 333 333 333 330 328 325 324 322 321 321 320 320 319 317 315 315 315 314 312 310 310 310 310 310 310 308 305 302 299 297 296 296 295 295 295 297 299 302 304
330 330 334 333 331 332 331 328 327 326 324 323 321 321 320 319 320 320 319 318 317 315 314 314 312 309 309 309 308 306 303 300 298 297 298 297 296 296 295 295 296 297 298 300
327 326 326 326 328 331 327 327 325 323 322 321 321 321 320 320 320 320 319 318 317 316 316 315 308 305 303 303 302 300 299 299 300 299 298 298 297 296 295 296 298 299 299 298
323 324 327 327 330 327 326 327 325 323 322 321 321 320 321 321 320 320 319 318 316 314 310 308 306 306 305 304 302 301 301 301 301 301 300 299 298 297 296 296 298 299 299 299
322 326 326 326 326 326 325 324 324 323 322 322 321 321 321 320 320 320 319 317 316 316 315 313 313 312 311 309 307 305 304 302 302 301 302 302 301 300 299 298 298 298 299 299
317 318 321 321 323 324 323 323 323 323 322 322 322 322 321 320 319 321 319 319 318 318 316 314 313 311 310 308 307 307 306 305 305 305 304 303 303 303 302 301 300 300 299 299
315 317 320 320 320 323 322 322 323 324 323 323 322 321 321 320 320 320 319 318 317 316 317 314 312 311 310 309 308 308 310 310 309 308 308 307 307 305 304 304 302 302 301 301
316 317 320 321 322 324 323 324 324 324 323 322 321 320 319 319 319 318 318 315 315 314 314 314 313 312 312 313 312 311 312 312 310 309 309 308 307 306 306 306 304 303 299 298
318 318 322 320 321 325 324 324 323 322 322 322 320 319 318 317 318 317 316 317 318 319 319 318 317 315 311 308 309 309 308 308 310 311 310 309 308 308 307 306 305 304 300 298
317 315 321 322 321 320 322 323 324 322 321 320 319 318 317 317 317 318 318 318 319 317 318 317 316 314 309 310 309 307 307 308 308 310 311 310 309 308 308 307 306 305 302 299
316 322 322 322 320 316 320 319 317 317 317 316 316 316 318 317 316 316 313 317 316 316 315 315 309 307 307 306 306 305 306 307 308 310 310 309 307 308 308 308 306 305 303 302
318 318 318 319 319 318 316 316 315 315 315 315 316 317 317 316 316 316 316 315 314 314 308 307 308 310 311 310 307 307 305 306 306 306 306 305 304 305 305 306 308 308 305 303
315 316 317 317 316 317 317 316 316 315 315 315 316 316 317 317 316 315 316 315 312 310 309 311 313 310 306 305 305 304 305 306 305 305 304 304 304 303 304 304 304 306 307 306
314 314 314 314 315 316 316 316 315 315 315 315 314 315 315 315 314 313 313 313 314 312 309 308 308 309 309 307 305 304 304 304 304 304 304 303 303 303 303 302 302 302 303 303
313 313 313 313 314 314 315 315 315 314 314 314 314 315 314 314 314 314 313 312 311 310 312 312 312 310 309 308 308 305 304 303 303 303 303 303 303 303 302 302 302 301 301 301

GFSNGP_925_thetae_012.txt.gz
Theta_e
318 319 327 331 331 324 325 324 331 330 323 325 335 338 341 342 348 348 347 344 342 340 338 339 340 340 339 341 341 341 342 343 342 338 339 338 335 336 335 333 334 334 333 333
329 331 330 333 332 330 331 326 324 327 326 326 330 335 339 340 348 348 347 344 344 341 339 336 336 338 339 338 338 339 341 342 340 340 339 337 334 335 333 332 332 332 331 330
325 330 328 325 331 332 333 332 331 335 330 335 336 337 337 336 344 342 342 343 339 336 331 328 330 333 335 337 339 340 340 342 339 339 339 335 334 332 331 330 331 330 328 327
325 326 329 322 326 331 337 344 340 336 336 336 335 334 335 334 338 338 339 336 333 328 324 324 325 327 329 331 332 336 338 340 339 339 339 336 333 331 329 328 328 328 327 326
330 327 327 332 336 344 336 337 337 338 338 342 339 336 339 336 334 336 332 328 325 323 321 321 321 324 325 325 326 327 331 335 339 339 337 336 333 330 327 326 325 326 326 327
332 334 335 329 339 344 342 337 336 339 340 344 340 339 338 332 328 327 324 322 319 318 318 319 319 321 322 322 324 324 327 332 336 338 335 334 332 328 325 323 323 323 324 323
333 336 333 333 343 341 336 334 341 342 341 342 340 336 332 327 325 323 321 320 318 317 316 317 319 320 318 318 317 319 323 327 331 332 330 329 327 323 320 320 320 319 319 316
327 332 333 339 341 338 333 342 338 340 336 335 333 331 327 325 323 322 320 319 318 316 315 316 317 318 316 315 315 317 320 321 322 322 322 321 321 316 314 316 316 313 312 309
324 327 333 339 342 339 338 339 338 338 335 333 329 329 327 325 322 320 319 317 316 315 314 315 315 315 314 313 314 315 316 315 316 317 316 314 313 311 311 312 311 310 309 309
332 333 337 338 335 333 336 338 337 334 333 332 330 327 324 322 321 319 318 316 315 315 313 313 314 314 314 314 314 314 313 312 312 313 313 313 312 313 313 312 310 310 309 308
331 332 333 333 332 333 336 334 332 331 331 330 327 325 324 322 320 319 318 316 315 314 313 313 313 313 313 313 313 312 311 311 311 311 311 310 310 310 311 310 311 310 309 309
333 329 330 330 332 333 333 333 330 328 327 325 325 324 322 320 319 318 317 315 314 314 313 312 311 310 309 310 312 311 309 309 309 308 308 308 307 306 307 308 309 309 310 310
329 328 328 329 332 332 332 331 329 326 324 323 322 322 322 319 318 318 316 314 314 314 313 311 309 309 309 310 311 311 310 309 308 306 303 301 300 301 298 300 303 304 304 305
328 328 331 333 331 331 329 328 326 324 323 322 320 320 319 319 319 317 316 316 316 314 312 312 310 310 309 310 310 308 304 300 298 296 296 295 295 295 296 298 299 300 301 302
328 327 325 325 328 328 326 325 324 323 322 320 320 319 318 319 319 318 318 317 316 314 314 312 309 307 307 307 304 300 299 298 298 298 297 296 295 295 296 296 297 299 299 299
326 325 326 326 329 327 326 324 323 322 321 320 319 319 319 319 319 319 319 318 315 314 314 309 305 304 303 301 300 300 301 301 300 300 299 298 297 296 296 297 298 299 299 298
321 323 324 325 325 325 325 324 323 322 321 320 319 320 320 319 319 319 318 317 316 313 309 305 303 302 302 302 302 301 301 302 302 301 301 301 300 298 297 297 298 298 299 298
312 314 316 320 322 324 324 323 322 321 321 321 320 320 319 319 319 319 318 316 312 310 308 308 307 307 308 308 306 305 304 303 302 302 302 302 302 301 300 299 298 298 298 298
317 316 314 318 319 321 323 322 322 323 322 321 320 320 319 319 319 319 317 316 316 316 315 314 313 311 310 309 308 307 307 306 306 306 307 306 303 302 302 302 301 301 300 299
317 318 315 316 319 320 321 323 322 322 321 321 320 320 319 319 319 319 318 317 317 317 314 312 311 311 310 310 309 308 308 308 310 309 308 308 307 307 306 305 304 304 303 301
317 318 315 317 319 322 323 322 322 321 321 321 320 319 319 318 319 318 316 316 316 316 314 313 313 313 313 312 313 313 311 311 310 308 309 309 309 308 307 306 306 306 305 303
317 316 317 320 320 319 322 322 323 321 320 320 319 319 318 316 316 316 316 316 317 318 317 316 316 313 308 309 306 307 307 307 307 308 309 309 309 308 308 307 307 306 305 305
316 315 318 318 317 317 319 320 320 320 319 318 318 317 317 316 316 316 314 315 317 316 316 316 316 313 307 306 307 306 306 305 306 307 309 310 309 308 308 308 308 308 307 306
318 317 315 316 317 316 315 315 316 316 316 317 317 317 317 315 314 315 316 315 315 316 316 309 306 307 306 305 305 305 305 305 305 305 305 305 304 304 304 304 304 304 306 307
317 316 316 317 317 316 315 315 315 315 315 315 315 316 315 315 314 313 315 315 314 309 306 309 312 310 305 305 305 305 304 304 305 305 304 303 303 303 303 303 303 302 302 304
315 315 316 316 316 316 316 315 315 315 314 313 313 314 315 315 314 314 313 312 312 312 310 310 311 310 309 309 309 307 304 303 304 304 303 303 303 303 303 302 302 302 302 302
314 314 315 315 315 315 315 315 315 315 314 313 313 313 313 313 313 313 313 313 313 313 312 312 312 311 310 307 306 307 308 304 303 303 303 303 303 302 302 302 302 302 301 301

GFSNGP_925_thetae_015.txt.gz
Theta_e
327 324 324 329 334 326 332 336 334 337 333 339 339 342 346 353 355 351 346 352 346 343 344 347 347 346 344 346 345 344 344 343 344 341 341 340 336 334 333 333 332 333 333 333
334 332 325 326 328 333 331 330 332 334 337 335 338 342 347 352 354 354 350 351 349 346 345 346 345 344 342 342 343 343 343 344 345 343 341 339 335 333 332 331 330 331 331 330
331 334 334 335 333 335 335 336 336 339 340 339 342 342 348 353 353 353 351 349 347 344 341 339 340 338 338 337 338 341 342 343 344 343 342 337 334 333 331 329 328 328 327 327
332 336 335 331 332 334 337 342 340 345 342 341 342 341 342 346 352 351 349 344 339 334 332 331 330 332 332 333 335 335 338 340 345 342 341 335 333 331 328 328 327 327 326 326
337 335 333 336 342 346 343 342 345 342 343 341 341 341 342 339 344 346 344 337 332 330 328 325 326 325 328 330 330 330 330 332 339 339 337 333 331 327 325 325 325 323 325 325
339 335 334 334 345 345 347 338 341 343 345 343 340 343 346 335 334 332 329 327 327 325 324 322 321 322 324 324 325 324 323 328 334 337 337 332 327 323 322 323 323 322 322 319
336 342 338 335 344 343 341 338 346 344 345 343 342 343 338 331 329 326 325 324 323 323 322 320 318 320 320 318 318 319 322 326 331 333 331 329 325 320 319 319 318 318 316 313
333 337 340 342 345 343 348 349 346 346 345 345 337 333 330 328 326 324 323 322 322 320 319 317 317 318 316 316 316 319 320 321 322 323 324 323 321 318 317 316 316 313 312 311
332 331 341 341 345 342 341 343 345 346 343 339 335 331 328 327 325 324 322 321 320 318 318 316 315 317 316 314 315 317 317 316 315 316 317 317 316 314 312 312 311 309 310 308
343 340 342 341 341 340 341 344 343 343 341 337 334 330 327 325 324 323 321 320 320 320 319 316 315 314 313 314 315 315 314 312 312 312 312 313 313 313 314 314 313 311 309 308
342 340 339 340 339 339 340 338 339 339 338 334 329 328 327 326 325 323 322 321 320 319 317 315 313 313 312 313 313 311 310 310 310 310 311 311 310 311 311 311 312 311 310 309
341 337 340 339 337 337 339 338 336 336 332 330 329 328 327 326 325 323 322 320 318 317 316 313 312 312 312 313 312 312 312 310 309 307 309 308 308 308 309 310 311 310 310 310
335 333 336 336 337 336 337 336 334 334 331 328 327 326 328 326 324 321 321 318 318 317 316 315 313 312 310 310 311 312 311 309 306 306 305 302 305 304 302 303 306 307 307 306
328 332 335 334 336 335 335 333 330 331 330 327 325 325 325 325 322 322 320 318 317 317 316 314 312 310 309 309 309 307 304 302 301 299 299 299 300 301 304 305 305 303 303 302
323 329 330 330 332 333 332 332 333 332 329 327 326 324 323 323 323 322 320 319 318 316 316 313 311 308 307 306 303 301 301 300 300 299 299 299 299 299 300 301 302 302 301 300
321 326 328 330 332 333 332 329 332 332 330 327 326 324 323 323 322 321 321 319 318 319 316 312 309 307 305 303 302 302 301 301 301 301 301 300 300 301 301 301 301 302 302 302
324 329 328 327 329 333 333 332 332 331 329 327 326 323 323 323 322 322 321 319 319 318 312 308 306 304 303 303 304 304 304 302 303 304 304 304 303 302 302 302 302 301 302 300
323 323 322 320 322 325 330 331 330 329 328 326 324 323 323 323 323 322 320 319 316 313 308 307 305 305 305 305 305 305 305 305 305 305 305 305 305 304 303 302 302 302 301 300
320 323 322 323 320 321 325 330 330 329 327 325 324 324 323 323 323 321 318 317 314 312 310 309 306 307 311 310 309 308 308 307 308 308 307 306 305 305 305 305 304 303 303 301
319 321 322 323 321 320 324 327 329 328 326 325 324 324 323 323 322 319 319 318 318 315 315 314 313 314 314 312 309 310 310 310 311 311 312 311 310 309 308 306 307 306 305 304
320 320 321 322 321 321 324 325 326 327 325 324 324 324 323 322 320 320 320 319 319 318 316 313 314 314 313 313 313 312 312 311 312 313 311 310 311 310 310 310 308 307 307 306
318 319 320 321 322 325 325 326 326 326 325 324 324 323 322 322 321 320 320 319 317 316 315 314 313 314 312 308 308 309 309 309 308 309 309 310 310 310 310 309 308 308 308 307
317 318 320 323 322 321 322 323 324 324 323 322 321 322 322 321 320 319 318 314 315 315 315 313 311 309 307 306 308 308 308 306 306 307 307 310 310 309 309 309 308 308 308 308
318 319 318 318 319 320 319 320 320 321 321 321 321 320 318 315 314 316 314 313 314 315 313 310 309 309 306 304 305 304 304 305 305 305 305 305 305 305 305 306 305 305 305 305
318 319 320 318 317 316 316 316 317 316 316 316 316 316 316 315 314 312 314 314 313 313 311 311 312 312 307 307 307 306 304 304 304 304 304 304 304 304 304 304 304 304 304 304
318 317 316 317 317 316 316 315 316 315 314 313 313 313 312 312 313 312 311 310 310 309 310 310 311 310 310 308 308 308 308 305 304 305 304 304 304 304 304 303 303 303 303 303
315 315 315 315 315 315 315 315 314 314 314 313 313 313 313 313 313 313 313 313 312 312 312 311 310 310 310 308 305 305 305 305 303 302 303 303 303 303 303 303 302 302 302 302

GFSNGP_925_thetae_021.txt.gz
Theta_e
331 328 328 329 329 330 330 332 334 335 340 340 343 343 348 349 355 356 358 354 357 356 352 348 348 349 349 347 347 347 347 346 347 347 346 346 343 341 340 339 339 338 336 336
333 330 328 328 328 328 330 331 333 334 338 336 344 346 344 352 356 356 355 354 356 352 347 347 349 350 348 349 349 347 347 346 347 348 347 347 344 341 340 338 338 337 336 334
335 330 328 331 330 328 329 332 333 334 336 340 340 347 348 351 356 355 353 354 355 349 348 350 350 350 350 350 352 351 350 349 348 349 348 347 344 341 339 337 336 336 334 334
335 333 333 332 331 332 330 330 331 333 336 343 348 348 348 350 355 355 352 354 351 347 350 352 352 351 350 348 349 349 349 348 348 349 350 348 345 341 338 336 335 334 333 331
332 332 331 331 332 332 331 332 332 332 336 344 346 348 353 353 352 354 353 353 350 350 350 348 347 347 348 348 347 346 344 340 340 342 346 345 344 340 338 335 334 332 332 331
330 332 334 332 334 336 334 339 336 342 341 343 343 335 357 354 358 358 355 353 350 346 343 341 339 342 344 342 340 337 333 332 332 331 339 341 341 338 336 333 333 331 330 328
327 330 330 331 343 342 337 345 353 350 348 344 346 357 355 353 352 349 348 345 343 342 341 338 336 336 337 334 330 329 329 328 326 331 335 339 338 335 334 334 330 328 325 323
327 328 329 337 340 340 356 353 354 353 351 357 355 349 346 344 342 341 341 340 342 339 336 334 333 334 332 327 326 326 325 323 320 323 326 329 331 330 330 330 328 325 324 323
331 329 346 344 351 351 351 353 354 353 350 351 347 345 339 337 338 339 340 340 339 336 331 329 329 329 327 325 324 324 322 320 316 317 318 319 322 322 323 323 321 318 317 313
333 333 342 344 346 349 349 351 351 350 349 346 347 341 338 336 336 336 337 336 334 334 331 327 326 326 325 324 323 323 320 316 313 313 313 314 314 315 316 317 315 314 312 312
333 343 340 345 345 346 347 348 349 349 348 347 344 340 337 334 334 333 333 332 331 330 328 325 324 324 324 323 323 322 321 318 316 312 311 312 312 312 312 312 313 313 313 313
341 342 343 345 343 343 345 346 347 346 344 343 340 338 335 334 332 331 330 329 328 326 325 324 323 323 323 322 323 323 322 320 317 315 313 312 310 308 310 311 312 311 311 311
334 335 338 340 340 340 342 342 343 343 341 340 336 334 333 332 332 330 328 326 325 325 324 324 324 323 322 323 323 322 320 319 317 318 317 316 314 313 310 308 309 310 310 310
329 330 336 334 337 337 339 339 338 339 336 335 335 334 333 333 329 329 326 326 325 325 325 324 324 323 322 322 322 322 320 318 318 316 315 315 316 317 316 315 313 308 305 305
327 328 329 331 332 334 335 337 338 339 336 335 334 333 332 332 331 328 326 326 326 326 325 324 324 323 322 321 316 311 310 310 310 309 309 309 309 309 310 310 310 309 306 303
325 326 327 327 331 331 331 334 337 336 336 334 334 333 333 332 330 327 326 326 325 325 324 323 323 320 313 312 312 311 310 309 309 310 310 311 311 311 310 309 309 309 308 308
324 325 324 328 330 326 327 329 333 334 335 335 334 333 332 330 328 326 325 325 324 324 323 322 318 312 312 312 311 310 310 310 311 312 312 312 312 311 311 310 308 308 308 306
323 324 324 326 327 327 325 324 325 333 333 333 331 329 329 328 327 326 325 325 324 323 320 317 313 312 313 312 312 312 312 312 313 313 313 313 313 313 312 311 310 309 308 305
321 323 323 323 324 325 325 324 325 329 332 330 329 330 329 329 327 325 324 323 323 319 316 313 311 313 314 313 314 314 314 314 314 314 315 314 315 314 314 313 313 312 311 308
321 321 322 322 323 324 325 323 324 326 327 331 330 330 329 328 326 325 324 324 321 318 314 312 311 314 314 313 312 315 315 315 316 316 315 315 315 315 314 314 314 313 312 312
321 321 322 323 324 324 325 324 322 328 328 330 331 330 328 327 325 325 323 323 320 315 314 310 315 316 316 314 312 315 316 317 316 316 314 314 314 315 314 314 313 313 313 312
320 321 322 323 325 326 326 324 323 326 327 331 330 328 326 326 325 324 323 321 318 315 314 313 317 316 316 316 316 316 316 315 314 314 314 314 313 314 314 313 313 313 312 312
318 320 322 323 325 327 327 326 326 329 330 329 328 327 326 325 325 325 323 321 320 316 316 315 315 315 314 315 313 310 310 311 311 311 310 310 311 312 311 310 309 309 309 309
318 321 322 326 328 329 330 330 329 330 330 328 327 326 325 325 322 320 320 317 316 316 311 310 310 311 310 310 309 309 308 307 307 308 307 308 308 309 308 308 308 307 307 307
320 322 323 324 324 324 324 322 320 319 319 320 318 319 320 318 316 315 314 312 312 311 308 307 307 308 309 310 310 310 309 309 307 306 307 308 308 308 307 306 306 306 306 307
321 322 321 321 321 321 321 320 318 316 315 313 312 313 313 314 314 314 313 311 311 312 312 312 312 310 309 309 309 309 308 309 309 309 308 308 307 308 308 307 306 306 307 306
320 321 321 319 320 319 318 317 317 317 316 313 312 311 312 311 311 311 312 312 311 311 310 310 309 309 309 310 308 308 308 307 305 305 306 306 306 306 305 305 305 304 303 301

GFSNGP_925_thetae_024.txt.gz
Theta_e
330 329 330 331 332 331 330 331 333 333 339 342 342 340 341 344 360 360 361 359 360 358 359 353 350 350 348 347 346 348 348 347 347 346 346 345 343 342 340 338 338 338 337 335
332 331 330 329 328 328 328 329 331 331 335 339 339 336 339 343 358 363 362 359 360 359 353 351 347 350 350 348 348 348 348 347 347 347 346 345 344 342 340 338 337 337 336 334
335 332 332 333 329 328 329 329 329 333 340 343 344 344 343 355 359 357 359 359 360 355 351 351 351 353 349 352 353 351 351 350 348 347 346 346 344 341 340 337 337 336 335 332
338 336 336 332 332 332 334 331 329 333 343 341 335 335 333 349 357 357 356 359 357 351 350 352 351 353 353 351 351 351 349 347 345 346 348 347 344 341 339 336 334 334 332 330
337 334 333 331 334 334 335 333 347 347 346 341 340 337 353 350 354 357 355 360 352 351 353 351 351 350 350 349 349 345 342 340 338 337 341 348 344 340 339 335 333 332 331 330
333 333 333 334 330 336 338 337 351 342 339 337 338 342 361 363 362 361 356 353 353 352 347 346 345 347 347 343 339 336 334 331 330 330 337 344 343 339 337 335 333 332 330 328
331 330 329 331 330 343 352 356 353 345 339 341 339 337 358 358 356 355 353 348 347 344 342 341 341 343 339 335 331 330 328 327 326 329 334 339 339 338 335 333 332 328 326 323
332 332 330 327 337 347 357 354 353 352 350 360 355 353 354 349 348 348 346 345 343 340 338 337 338 336 331 328 327 325 324 321 322 324 328 331 333 333 333 331 328 326 325 318
334 333 349 349 354 353 352 353 353 353 350 352 350 347 344 343 342 344 344 343 338 334 333 331 333 331 327 325 324 323 321 319 318 319 321 323 325 326 327 327 325 322 319 315
337 339 346 348 347 347 349 351 349 348 349 347 347 342 340 340 341 341 340 338 335 333 331 329 328 326 326 324 323 321 319 317 315 316 316 317 318 319 319 318 318 317 315 313
336 343 347 346 345 344 345 347 349 349 349 349 345 342 339 338 338 336 335 334 333 331 328 326 325 325 324 324 324 322 321 318 316 315 313 313 314 314 314 314 314 314 314 314
348 342 346 345 343 341 343 343 345 346 347 345 342 341 337 336 334 334 334 332 331 330 327 326 325 324 325 324 324 324 322 321 319 317 316 314 312 311 312 312 313 313 313 313
337 333 335 340 337 338 339 341 343 343 343 341 338 337 334 333 333 332 331 330 328 327 327 325 325 324 324 323 324 324 322 321 320 319 318 317 315 314 310 310 311 311 311 311
330 330 333 335 335 334 335 337 340 340 337 336 335 334 334 333 331 330 330 328 327 326 326 325 325 324 324 324 324 325 323 322 322 321 320 320 319 318 315 314 312 308 308 307
326 327 329 329 332 333 332 334 341 341 338 336 335 334 334 333 332 329 328 327 327 326 326 325 325 325 324 324 323 318 314 313 312 311 311 311 311 311 311 312 312 309 306 305
324 324 326 327 328 331 330 332 335 339 338 336 336 335 334 334 331 329 327 327 327 327 326 325 324 324 321 316 314 312 311 310 311 311 312 312 312 311 311 310 310 310 310 308
323 323 325 326 329 331 328 329 329 331 336 336 335 335 333 331 329 328 326 326 326 325 324 323 323 316 314 314 313 311 311 311 312 313 313 313 312 312 312 311 310 309 309 307
321 322 322 323 324 328 327 326 325 331 335 334 334 333 332 330 328 326 326 326 324 324 324 322 316 315 314 313 312 312 312 313 314 314 314 314 313 314 314 313 312 311 308 307
321 321 321 321 322 324 325 325 325 326 331 331 332 331 331 328 328 327 326 326 325 324 321 317 314 315 314 314 314 314 314 315 315 315 316 315 316 316 315 315 314 314 313 307
321 321 322 321 321 322 323 324 325 327 332 332 330 330 331 330 328 327 325 325 325 323 317 315 313 315 316 315 313 315 316 316 317 316 316 316 316 316 315 314 314 314 314 313
320 321 322 322 322 322 323 324 325 326 326 328 331 331 331 330 328 326 325 324 323 316 315 313 315 316 316 315 313 316 317 318 316 316 314 315 316 315 315 314 314 314 314 314
317 318 320 321 322 323 325 325 325 326 329 328 328 328 330 329 327 326 325 323 316 315 313 312 316 317 317 314 314 314 316 314 314 314 313 313 313 312 312 312 312 310 311 311
317 318 319 321 323 324 325 326 328 326 326 329 330 330 329 327 326 324 325 319 315 315 313 315 316 316 316 315 313 310 309 309 310 310 311 310 310 310 310 310 309 309 309 307
317 318 320 321 323 325 326 323 328 329 330 330 330 328 325 320 317 319 321 317 315 314 313 312 313 314 313 311 310 308 311 311 311 311 312 310 309 308 309 308 308 307 308 308
318 320 322 324 325 323 322 321 320 321 321 320 320 321 321 320 315 312 312 311 312 311 308 309 311 311 309 309 310 311 311 310 309 307 308 308 308 309 308 308 307 307 307 306
320 322 322 322 323 322 321 320 320 318 316 314 313 314 314 314 314 314 313 312 311 310 308 309 310 311 312 312 310 309 309 310 309 309 309 308 308 308 307 307 306 306 304 302
320 320 320 319 318 318 318 318 317 316 315 315 313 313 314 313 313 313 313 313 312 312 312 312 311 310 309 309 309 311 310 307 306 306 307 307 306 306 305 304 303 302 299 297

GFSNGP_925_thetae_030.txt.gz
Theta_e
327 328 327 328 329 329 328 327 329 328 331 334 337 336 342 336 335 336 335 338 346 344 343 341 334 334 337 339 346 348 347 346 347 344 342 340 339 338 337 335 336 334 332 332
325 331 330 331 330 330 330 334 328 335 338 337 335 334 340 338 343 344 344 351 348 348 345 342 342 338 335 342 347 348 347 347 347 345 343 341 339 338 336 336 335 333 331 331
324 330 333 329 329 330 335 341 339 332 331 335 339 336 335 339 340 341 341 352 349 349 347 346 345 343 342 345 348 348 349 348 348 346 344 341 341 338 336 336 335 333 328 330
333 332 336 330 329 343 347 346 343 340 338 335 336 334 336 339 337 340 339 348 348 347 346 345 347 351 349 348 348 347 347 346 346 345 344 342 340 338 336 335 333 331 327 328
331 332 330 329 336 337 340 347 343 344 342 340 339 335 333 333 336 331 339 343 347 346 345 345 351 349 347 343 342 339 339 338 338 339 344 343 341 339 336 334 332 330 327 325
326 330 332 328 334 336 338 346 341 340 342 341 339 340 337 332 347 347 345 345 347 347 349 350 346 345 344 342 333 331 331 330 331 333 338 344 342 339 336 333 332 330 327 324
326 328 327 326 325 333 335 330 339 336 337 339 340 336 332 339 343 341 341 340 342 342 340 339 340 343 339 332 330 328 327 329 331 333 338 341 341 338 335 333 330 327 326 323
324 328 328 341 346 340 336 339 336 336 336 338 336 339 346 343 340 337 336 336 336 334 334 335 334 335 328 326 325 325 325 327 329 332 335 338 339 336 334 332 328 324 322 321
321 323 337 340 341 337 337 341 341 337 337 337 340 344 341 340 337 335 335 334 333 332 331 331 331 331 325 323 323 323 324 324 326 328 330 332 333 333 331 329 325 321 320 317
338 341 336 335 338 340 342 345 344 339 337 341 342 338 337 336 333 333 333 332 331 330 328 327 326 326 324 323 322 321 321 321 322 324 325 326 327 327 326 323 322 319 317 316
338 338 337 335 334 336 343 344 344 341 340 339 337 336 335 335 334 334 333 331 330 328 326 325 325 324 323 322 321 320 319 319 320 321 321 320 320 320 320 319 319 318 317 316
337 333 336 338 332 333 337 345 342 341 339 337 335 334 334 334 334 333 331 329 328 327 326 325 324 324 323 322 320 319 317 317 317 318 317 317 317 315 315 315 316 316 316 316
330 330 331 334 336 334 336 340 339 337 336 335 334 333 334 334 334 332 331 329 327 326 326 324 324 324 323 322 320 319 318 317 316 316 316 315 315 316 314 313 313 314 313 314
323 324 327 331 331 332 339 338 337 336 335 334 333 333 333 333 332 331 330 329 327 325 325 323 323 323 323 324 322 321 319 317 316 315 315 315 314 313 311 310 311 311 311 311
321 321 322 322 323 327 333 335 335 333 333 332 333 332 332 331 331 330 329 327 326 325 324 324 323 323 323 323 323 321 320 319 318 317 316 315 314 312 310 308 307 306 307 306
319 320 320 321 321 322 325 330 333 334 332 332 332 332 332 331 331 329 328 327 325 325 324 323 323 323 323 324 324 323 323 321 319 318 318 317 316 314 313 311 308 307 306 305
319 321 320 320 319 320 323 322 323 326 332 332 333 333 333 331 329 327 327 326 326 325 324 323 323 323 323 323 313 313 310 309 310 310 311 312 314 313 313 312 310 309 309 307
318 318 318 318 318 318 319 320 323 326 328 331 333 333 332 329 327 326 326 326 326 325 324 323 324 324 320 314 311 310 310 311 312 312 312 311 311 311 310 310 310 310 309 309
319 318 318 319 320 320 320 321 322 324 327 331 331 330 330 328 327 326 326 326 326 324 324 323 320 315 314 314 310 311 312 312 313 312 314 315 315 315 314 314 313 311 309 309
317 317 317 317 317 320 321 323 324 324 326 331 330 329 328 328 327 326 325 325 324 323 323 320 314 314 316 313 314 315 314 314 315 314 315 315 314 314 314 311 311 313 311 308
317 318 317 317 317 317 320 323 323 323 323 328 329 327 328 328 326 326 325 325 324 324 321 317 314 315 315 314 317 316 315 315 314 313 311 310 310 310 309 309 308 312 309 309
316 317 317 317 316 317 318 320 323 322 323 324 327 326 326 326 326 326 325 325 324 322 321 315 314 315 315 313 316 316 314 313 312 312 312 312 312 311 310 309 308 307 307 307
316 316 316 316 316 316 316 318 320 321 324 326 326 321 321 324 325 324 323 324 324 319 315 314 315 316 313 314 314 312 311 312 312 312 311 310 309 309 309 309 307 306 305 305
317 317 317 317 317 318 316 320 318 320 322 323 323 324 324 322 324 324 323 322 318 315 313 313 315 313 312 311 311 311 311 311 311 311 310 308 308 308 307 306 305 304 303 303
318 317 317 318 318 319 319 317 317 316 317 318 318 319 322 320 319 315 317 315 313 312 314 314 313 311 311 310 310 311 310 310 310 308 308 307 307 307 306 305 304 303 301 300
319 318 320 321 320 319 318 317 316 315 315 313 313 314 314 318 315 311 311 312 312 312 311 311 310 311 312 313 310 309 308 309 308 307 307 306 305 305 304 302 301 300 298 296
318 318 318 317 317 317 316 316 315 314 314 314 313 312 311 311 311 312 313 314 312 311 311 312 313 313 310 309 309 306 307 307 307 306 305 304 303 302 301 300 298 296 295 293

GFSNGP_925_thetae_033.txt.gz
Theta_e
323 326 326 328 329 328 327 325 328 327 327 328 335 337 339 334 334 337 336 337 341 345 342 343 343 344 343 337 335 343 347 346 345 343 341 338 338 337 336 335 334 332 331 331
325 329 329 329 327 328 332 338 330 334 335 332 334 335 339 336 339 342 342 342 345 345 343 341 338 337 337 334 337 345 348 346 345 344 341 339 338 337 335 336 333 332 330 330
321 330 327 323 330 334 342 342 340 331 332 335 335 336 337 337 337 337 340 341 346 336 344 342 339 336 336 334 338 345 347 346 345 346 342 340 338 337 336 334 333 330 329 329
329 327 325 325 340 338 345 345 341 337 336 337 335 333 333 335 340 339 336 340 342 334 345 344 338 342 338 340 345 347 347 347 346 345 342 341 339 336 336 334 333 330 327 327
328 328 326 337 342 335 337 345 342 339 338 339 336 334 334 334 335 335 336 338 344 345 345 344 345 343 343 345 345 345 343 341 340 343 343 341 339 337 335 333 331 328 326 325
324 328 329 326 331 338 330 330 341 340 337 338 337 334 336 335 343 344 344 343 342 344 345 345 344 343 344 344 342 337 339 335 334 334 337 340 340 338 335 332 330 327 324 322
326 326 325 324 332 331 327 323 339 338 336 338 337 334 332 339 338 339 338 338 341 341 339 338 339 340 340 337 332 334 333 331 330 333 335 339 341 339 335 333 329 326 325 322
321 323 324 341 347 334 326 338 335 335 333 336 334 343 344 339 338 336 334 334 335 334 333 335 335 334 331 329 329 328 328 328 330 333 335 338 340 336 334 331 328 324 321 319
320 321 335 336 340 339 332 338 337 335 334 335 339 342 341 339 335 334 334 334 333 332 330 331 332 330 326 323 324 324 325 327 328 330 332 336 337 335 332 328 325 321 320 318
337 337 335 334 336 341 342 344 343 337 335 338 338 340 337 336 332 332 331 331 332 331 328 326 327 326 325 322 322 322 321 323 325 327 328 330 330 330 329 325 322 320 319 317
337 335 334 334 333 334 339 337 342 339 337 338 339 337 335 334 332 332 331 329 330 328 326 324 324 323 323 321 321 319 320 321 322 323 323 324 324 322 323 322 322 321 319 317
335 331 332 334 332 334 340 343 340 339 338 337 336 335 334 332 333 333 330 328 327 327 326 325 324 323 322 321 320 319 319 320 321 321 320 320 320 318 318 318 318 318 317 317
329 328 330 334 334 332 338 341 339 338 336 336 334 334 333 332 333 332 330 328 327 327 326 324 324 323 322 321 319 319 318 318 317 318 317 317 316 317 315 314 314 315 315 314
325 324 329 330 330 334 338 338 336 335 335 335 334 333 333 332 332 331 330 329 327 326 325 324 323 323 323 321 319 318 317 316 316 316 315 315 313 312 312 314 313 312 312 312
320 320 323 323 325 329 335 335 334 334 333 332 333 332 331 330 330 331 330 329 327 325 325 323 323 323 323 323 322 320 317 316 315 315 314 313 312 309 307 307 308 307 307 308
319 318 318 318 320 323 327 332 333 332 330 330 330 331 331 331 330 330 329 327 325 324 324 324 323 323 323 323 323 321 319 318 317 316 315 314 313 311 309 308 307 306 305 303
318 318 318 318 318 319 321 321 320 323 331 330 331 332 331 331 330 329 328 327 326 325 324 323 323 323 323 323 323 322 322 321 320 318 318 317 316 314 313 311 310 308 308 306
316 316 316 317 317 318 318 320 321 322 324 327 331 331 331 330 328 328 327 327 326 325 324 323 322 323 323 323 320 313 313 312 312 313 312 314 315 314 313 312 311 310 309 308
316 315 316 317 318 318 319 320 322 322 323 325 329 329 331 330 329 328 327 326 325 325 325 324 323 323 323 317 314 310 309 309 310 311 311 310 310 311 311 312 312 311 310 309
316 317 316 316 316 317 318 321 323 322 322 324 328 328 327 327 327 326 325 325 325 325 325 323 322 318 314 314 311 311 310 311 312 312 314 313 313 313 312 312 312 312 311 308
313 315 316 316 316 316 316 319 320 322 322 322 324 326 326 326 327 326 324 323 325 325 323 323 317 314 315 313 316 315 314 313 313 314 313 313 311 309 308 310 311 310 308 306
313 314 314 315 315 315 316 316 316 320 321 321 321 324 325 325 325 325 325 324 324 324 322 317 314 315 314 316 315 315 314 313 312 310 310 310 310 309 309 309 309 309 309 308
313 314 315 315 315 315 316 316 316 318 319 320 322 324 325 325 325 323 323 324 324 323 321 320 314 315 314 316 315 314 312 312 312 311 310 309 310 310 309 308 308 307 306 305
314 316 317 316 317 317 315 318 318 317 317 319 318 321 322 323 323 324 324 324 324 323 322 315 315 314 313 314 314 312 312 312 311 311 310 310 310 309 308 307 306 305 304 304
317 317 317 316 316 315 318 315 314 314 313 313 315 314 317 320 321 320 322 323 323 321 315 314 314 313 313 312 312 311 311 311 310 309 309 308 308 307 306 305 305 304 303 302
319 317 319 319 319 319 317 315 313 313 314 313 313 313 313 314 313 315 316 313 312 312 312 311 311 311 310 310 311 310 311 310 308 308 308 307 307 306 305 304 304 303 301 299
317 317 317 316 315 316 315 315 314 314 314 313 312 311 311 311 311 311 311 311 311 310 310 310 311 312 311 310 309 308 308 308 308 307 307 306 305 305 304 302 301 300 298 296